Adana, Turkey

11:27 AM +03 on January 17, 2018 (GMT +0300)
Adana

Weather History for LTAF - December, 2012

Change the Weather History Date:

Thursday, December 27, 2012

  Actual Average Record
Temperature  
Mean Temperature 52 °F -  
Max Temperature 64 °F 57 °F 72 °F (2015)
Min Temperature 41 °F 39 °F 32 °F (2002)
Degree Days  
Heating Degree Days 12    
Growing Degree Days 2 (Base 50)    
Moisture  
Dew Point 46 °F    
Average Humidity 80    
Maximum Humidity 93    
Minimum Humidity 52    
Precipitation  
Precipitation 0.00 in 0.16 in - ()
Sea Level Pressure  
Sea Level Pressure 30.21 in    
Wind  
Wind Speed 2 mph ()    
Max Wind Speed 7 mph    
Max Gust Speed -    
Visibility 2.5 miles    
Events Fog    
Averages and records for this station are not official NWS values.
T = Trace of Precipitation, MM = Missing Value Source: Averaged Metar Reports

Daily Weather History Graph

Daily Weather History Graph

Search for Another Location

Airport or City:

Trip Planner

Search our weather history database for the weather conditions in past years. The results will help you decide how hot, cold, wet, or windy it might be!

Date:

Astronomy

Dec. 27, 2012 Rise Set
Actual Time 6:50 AM EET 4:29 PM EET
Civil Twilight 6:21 AM EET 4:58 PM EET
Nautical Twilight 5:49 AM EET 5:30 PM EET
Astronomical Twilight 5:17 AM EET 6:02 PM EET
Moon 3:54 PM EET (12/27) 5:46 AM EET (12/27)
Length of Visible Light 10h 36m
Length of Day
9h 38m
Waxing Gibbous, 99% of the Moon is Illuminated
Dec 27
Waxing Gibbous
Dec 28
Full
Jan 5
Last Quarter
Jan 11
New
Jan 19
First Quarter

Hourly Weather History & Observations

Time (EET) Temp. Windchill Dew Point Humidity Pressure Visibility Wind Dir Wind Speed Gust Speed Precip Events Conditions
12:20 AM 44.6 °F 43.1 °F 42.8 °F 93% 30.24 in 3.1 mi South 3.5 mph - N/A   Mist
12:50 AM 44.6 °F - 42.8 °F 93% 30.21 in 3.1 mi Calm Calm - N/A   Mist
1:20 AM 42.8 °F - 41.0 °F 93% 30.21 in 3.1 mi Calm Calm - N/A   Mist
1:50 AM 44.6 °F 42.2 °F 42.8 °F 93% 30.21 in 3.1 mi NNE 4.6 mph - N/A   Mist
2:20 AM 42.8 °F - 41.0 °F 93% 30.21 in 3.1 mi Calm Calm - N/A   Mist
2:50 AM 44.6 °F - 42.8 °F 93% 30.21 in 3.1 mi NNW 1.2 mph - N/A   Mist
3:20 AM 42.8 °F - 41.0 °F 93% 30.21 in 3.1 mi Calm Calm - N/A   Mist
3:50 AM 42.8 °F - 41.0 °F 93% 30.21 in 3.1 mi North 2.3 mph - N/A   Mist
4:20 AM 41.0 °F - 39.2 °F 93% 30.21 in 3.1 mi Calm Calm - N/A   Mist
4:50 AM 44.6 °F 43.1 °F 42.8 °F 93% 30.21 in 3.1 mi North 3.5 mph - N/A   Mist
5:20 AM 42.8 °F 41.1 °F 41.0 °F 93% 30.21 in 3.1 mi NNE 3.5 mph - N/A   Mist
5:50 AM 42.8 °F - 41.0 °F 93% 30.24 in 3.1 mi North 1.2 mph - N/A   Mist
6:20 AM 42.8 °F - 41.0 °F 93% 30.24 in 3.1 mi Calm Calm - N/A   Mist
6:50 AM 44.6 °F 42.2 °F 42.8 °F 93% 30.24 in 3.1 mi NE 4.6 mph - N/A   Mist
7:20 AM 46.4 °F 44.3 °F 44.6 °F 93% 30.24 in 3.1 mi NNE 4.6 mph - N/A   Mist
7:50 AM 48.2 °F - 46.4 °F 93% 30.24 in 3.1 mi NNE 5.8 mph - N/A   Mist
8:20 AM 50.0 °F - 46.4 °F 87% 30.24 in 3.1 mi NNE 6.9 mph - N/A   Mist
8:50 AM 51.8 °F - 46.4 °F 82% 30.27 in 3.1 mi NNE 5.8 mph - N/A   Mist
9:20 AM 53.6 °F - 44.6 °F 72% 30.27 in 3.1 mi NNE 4.6 mph - N/A   Mist
9:50 AM 55.4 °F - 44.6 °F 67% 30.27 in 3.1 mi North 4.6 mph - N/A   Haze
10:20 AM 57.2 °F - 44.6 °F 63% 30.24 in 4.3 mi NNE 6.9 mph - N/A   Unknown
10:50 AM 59.0 °F - 44.6 °F 59% 30.24 in - NNW 4.6 mph - N/A   Clear
11:20 AM 60.8 °F - 46.4 °F 59% 30.24 in - North 3.5 mph - N/A   Clear
11:50 AM 62.6 °F - 46.4 °F 55% 30.21 in - Variable 1.2 mph - N/A   Clear
12:20 PM 62.6 °F - 46.4 °F 55% 30.21 in - East 3.5 mph - N/A   Clear
12:50 PM 64.4 °F - 46.4 °F 52% 30.21 in - North 3.5 mph - N/A   Clear
1:20 PM 64.4 °F - 48.2 °F 56% 30.18 in - Variable 2.3 mph - N/A   Clear
1:50 PM 64.4 °F - 48.2 °F 56% 30.18 in - Variable 2.3 mph - N/A   Clear
2:20 PM 64.4 °F - 50.0 °F 59% 30.18 in - Variable 2.3 mph - N/A   Clear
2:50 PM 64.4 °F - 50.0 °F 59% 30.18 in - Variable 2.3 mph - N/A   Clear
3:20 PM 64.4 °F - 50.0 °F 59% 30.18 in 4.3 mi Variable 2.3 mph - N/A   Unknown
3:50 PM 64.4 °F - 50.0 °F 59% 30.18 in 3.1 mi Variable 1.2 mph - N/A   Haze
4:20 PM 60.8 °F - 50.0 °F 68% 30.18 in 3.1 mi Calm Calm - N/A   Haze
4:50 PM 59.0 °F - 51.8 °F 77% 30.18 in 3.1 mi Calm Calm - N/A   Mist
5:20 PM 57.2 °F - 50.0 °F 77% 30.18 in 3.1 mi Calm Calm - N/A   Mist
5:50 PM 53.6 °F - 48.2 °F 82% 30.21 in 1.2 mi Calm Calm - N/A Fog Patches of Fog
6:20 PM 55.4 °F - 51.8 °F 88% 30.18 in 0.6 mi NE 2.3 mph - N/A Fog Patches of Fog
6:50 PM 50.0 °F - 46.4 °F 87% 30.21 in 0.9 mi Calm Calm - N/A Fog Patches of Fog
7:20 PM 50.0 °F - 46.4 °F 87% 30.21 in 0.6 mi NE 4.6 mph - N/A Fog Patches of Fog
7:50 PM 50.0 °F - 46.4 °F 87% 30.21 in 0.9 mi Calm Calm - N/A Fog Patches of Fog
8:20 PM 53.6 °F - 50.0 °F 88% 30.21 in 0.6 mi North 3.5 mph - N/A Fog Patches of Fog
8:50 PM 51.8 °F - 48.2 °F 88% 30.21 in 0.6 mi Calm Calm - N/A Fog Patches of Fog
9:20 PM 51.8 °F - 48.2 °F 88% 30.21 in 0.6 mi Variable 1.2 mph - N/A Fog Patches of Fog
9:50 PM 51.8 °F - 48.2 °F 88% 30.21 in 0.8 mi Variable 2.3 mph - N/A Fog Patches of Fog
10:20 PM 50.0 °F - 46.4 °F 87% 30.21 in 1.1 mi North 3.5 mph - N/A Fog Patches of Fog
10:50 PM 48.2 °F - 46.4 °F 93% 30.21 in 1.2 mi North 3.5 mph - N/A   Partly Cloudy
11:20 PM 46.4 °F 44.3 °F 44.6 °F 93% 30.21 in 3.1 mi NNE 4.6 mph - N/A   Partly Cloudy
11:50 PM 48.2 °F - 46.4 °F 93% 30.18 in 3.1 mi NNE 3.5 mph - N/A   Partly Cloudy